Погода в Эдсоне

Канада     53°35′03″N   116°25′58″W
темп.,
°C
ветер,
м/с
пор.,
м/с
влажн.,
%
обл.,
%
осадки,
мм/ч
давл.,
гПа
погр.,
м
13 мая, чт
чт1300:00+7зсз288085 0.0 1018268
03:00+6юз269158 0.0 1018139
06:00+5зюз259297 0.0 1020112
09:00+11зсз24606 0.0 1019496
12:00+16сз233699 0.1 10172644
15:00+18ссз233198 0.0 10162795
18:00+17всв33387 0.0 10161868
21:00+7св1392100 2.4 1019163
14 мая, пт
пт1400:00+6юз139699 6.3 102169
03:00+5з11975 0.0 102118
06:00+4зюз11965 0.0 102117
09:00+10зюз11785 0.0 1019281
12:00+17вюв01445 0.0 10161478
15:00+17всв1336100 0.0 10142100
18:00+15зюз2351100 0.1 10121493
21:00+8всв269430 4.1 1015213
15 мая, сб
сб1500:00+6ююз139769 4.6 101559
03:00+7з2696100 0.3 1015131
06:00+6юз229541 0.3 101546
09:00+11юз237997 0.0 1013257
12:00+18зюз244499 0.0 10111771
15:00+20зсз2530100 0.0 10082764
18:00+19ссз263799 0.0 10082157
21:00+13юв226392 0.0 101020
16 мая, вс
вс1600:00+9зсз1174100 0.0 101111
03:00+8ююз1175100 0.0 101110
06:00+7св0179100 0.0 101110
09:00+13в1359100 0.0 1009342
12:00+19юв4543100 0.0 10051443
15:00+21вюв243995 0.0 10011437
18:00+24з262979 0.0 9982669
21:00+12с4108529 0.0 1002495
17 мая, пн
пн1700:00+8сз2695100 0.2 1004210
03:00+6з239892 0.1 100570
06:00+8сз2789100 0.3 1005686
09:00+6з2694100 3.8 1007672
12:00+7з0190100 9.4 1007337
15:00+6ююз3594100 4.2 1010354
18:00+10юз237131 4.3 1008836
21:00+8ю228492 0.3 100944